Weather History for Joplin, MO

Change the Weather History Date:

Thursday, March 21, 2013

  Actual Average Record
Temperature  
Mean Temperature 35 °F 50 °F  
Max Temperature 40 °F 62 °F 84 °F (1997)
Min Temperature 30 °F 39 °F 13 °F (1974)
Degree Days  
Heating Degree Days 30 15  
Month to date heating degree days 453 374  
Since 1 July heating degree days 3569 3628  
Cooling Degree Days 0 0  
Month to date cooling degree days 0 0  
Year to date cooling degree days 1 1  
Moisture  
Dew Point 22 °F    
Average Humidity 60    
Maximum Humidity 89    
Minimum Humidity 30    
Precipitation  
Precipitation 0.13 in 0.11 in 1.18 in (1949)
Month to date precipitation 1.33 2.22  
Year to date precipitation 6.48 6.57  
Snow  
Snow 0.00 in - - ()
Month to date snowfall T  
Snow Depth 0.00 in    
Sea Level Pressure  
Sea Level Pressure 29.93 in    
Wind  
Wind Speed 11 mph (East)    
Max Wind Speed 20 mph    
Max Gust Speed 31 mph    
Visibility 8 miles    
Events Rain , Snow    
T = Trace of Precipitation, MM = Missing Value Source: NWS Daily Summary

Daily Weather History Graph

Daily Weather History Graph

Search for Another Location

Airport:

Trip Planner

Search our weather history database for the weather conditions in past years. The results will help you decide how hot, cold, wet, or windy it might be!

Date:

Astronomy

Mar. 21, 2013 Rise Set
Actual Time 7:19 AM CDT 7:30 PM CDT
Civil Twilight 6:53 AM CDT 7:56 PM CDT
Nautical Twilight 6:23 AM CDT 8:27 PM CDT
Astronomical Twilight 5:52 AM CDT 8:58 PM CDT
Moon 2:08 PM CDT (3/21) 3:35 AM CDT (3/21)
Length of Visible Light 13h 03m
Length of Day
12h 11m
Waxing Gibbous, 69% of the Moon is Illuminated
Mar 21
Waxing Gibbous
Mar 27
Full
Apr 2
Last Quarter
Apr 10
New
Apr 18
First Quarter

Hourly Weather History & Observations

Time (CDT) Temp. Windchill Dew Point Humidity Pressure Visibility Wind Dir Wind Speed Gust Speed Precip Events Conditions
12:53 AM 30.0 °F 24.1 °F 15.1 °F 54% 30.12 in 10.0 mi East 5.8 mph - N/A   Clear
1:53 AM 30.9 °F 24.3 °F 16.0 °F 54% 30.10 in 10.0 mi East 6.9 mph - N/A   Clear
2:53 AM 32.0 °F 25.6 °F 14.0 °F 48% 30.09 in 10.0 mi East 6.9 mph - N/A   Clear
3:53 AM 32.0 °F 24.8 °F 14.0 °F 48% 30.07 in 10.0 mi East 8.1 mph - N/A   Overcast
4:53 AM 30.9 °F 22.8 °F 14.0 °F 50% 30.05 in 10.0 mi ESE 9.2 mph - N/A   Scattered Clouds
5:53 AM 32.0 °F 24.2 °F 12.9 °F 45% 30.04 in 10.0 mi East 9.2 mph - N/A   Mostly Cloudy
6:53 AM 33.1 °F 24.9 °F 12.0 °F 42% 30.02 in 10.0 mi East 10.4 mph - N/A   Overcast
7:53 AM 33.1 °F 25.5 °F 12.0 °F 42% 30.03 in 10.0 mi East 9.2 mph - N/A   Overcast
8:53 AM 33.1 °F 24.4 °F 12.9 °F 43% 30.03 in 10.0 mi East 11.5 mph - N/A   Overcast
9:53 AM 35.1 °F 26.9 °F 12.9 °F 40% 30.02 in 10.0 mi East 11.5 mph - N/A   Overcast
10:53 AM 37.9 °F 29.6 °F 10.0 °F 32% 29.99 in 10.0 mi ESE 13.8 mph - N/A   Overcast
11:53 AM 39.0 °F 31.0 °F 10.9 °F 32% 29.97 in 10.0 mi East 13.8 mph - N/A   Overcast
12:53 PM 39.0 °F 30.6 °F 12.9 °F 34% 29.95 in 10.0 mi ESE 15.0 mph 24.2 mph N/A   Overcast
1:53 PM 37.9 °F 28.5 °F 21.0 °F 51% 29.92 in 10.0 mi ESE 17.3 mph - 0.00 in Rain Light Rain
2:34 PM 37.4 °F 29.8 °F 21.2 °F 52% 29.89 in 2.0 mi ESE 11.5 mph 19.6 mph 0.00 in Snow Light Snow
2:49 PM 33.8 °F 23.5 °F 28.4 °F 81% 29.88 in 0.5 mi East 16.1 mph 23.0 mph 0.00 in Snow Snow
2:53 PM 34.0 °F 24.2 °F 28.9 °F 82% 29.89 in 0.5 mi East 15.0 mph 21.9 mph 0.01 in Snow Snow
2:57 PM 33.8 °F 23.5 °F 28.4 °F 81% 29.87 in 0.8 mi ESE 16.1 mph - 0.00 in Snow Light Snow
3:23 PM 33.8 °F 25.3 °F 30.2 °F 87% 29.85 in 1.0 mi East 11.5 mph 23.0 mph 0.03 in Snow Light Snow
3:53 PM 33.1 °F 26.1 °F 30.0 °F 89% 29.87 in 8.0 mi East 8.1 mph 18.4 mph 0.05 in Rain Light Freezing Rain
4:21 PM 32.0 °F 23.0 °F 30.2 °F 93% 29.85 in 10.0 mi East 11.5 mph - 0.00 in   Overcast
4:53 PM 33.1 °F 26.1 °F 30.0 °F 89% 29.87 in 7.0 mi East 8.1 mph - 0.01 in Rain Light Freezing Rain
5:16 PM 32.0 °F 23.0 °F 30.2 °F 93% 29.84 in 6.0 mi East 11.5 mph - 0.00 in Rain Light Rain
5:53 PM 32.0 °F 22.5 °F 28.9 °F 88% 29.86 in 8.0 mi East 12.7 mph - 0.00 in   Overcast
6:53 PM 32.0 °F 22.1 °F 28.9 °F 88% 29.87 in 3.0 mi East 13.8 mph - 0.01 in Rain Light Rain
7:53 PM 32.0 °F 22.5 °F 28.9 °F 88% 29.88 in 5.0 mi East 12.7 mph - 0.03 in Snow Light Snow
8:26 PM 32.0 °F - 28.4 °F 87% 29.85 in 8.0 mi North - - 0.01 in Rain Light Freezing Rain
8:53 PM 32.0 °F - 28.9 °F 88% 29.88 in 9.0 mi North - - 0.01 in Rain Light Freezing Rain
9:16 PM 32.0 °F - 28.4 °F 87% 29.86 in 10.0 mi North - - 0.01 in Rain Light Freezing Rain
9:53 PM 32.0 °F 21.2 °F 28.9 °F 88% 29.88 in 10.0 mi East 16.1 mph 21.9 mph 0.01 in Rain Light Freezing Rain
10:15 PM 32.0 °F 22.5 °F 28.4 °F 87% 29.86 in 10.0 mi East 12.7 mph - 0.00 in   Overcast
10:24 PM 33.8 °F - 28.4 °F 81% 29.86 in 10.0 mi North - - 0.00 in   Overcast
10:53 PM 33.1 °F 23.4 °F 28.9 °F 85% 29.88 in 10.0 mi ESE 13.8 mph - 0.00 in   Overcast
11:53 PM 33.1 °F 24.9 °F 28.9 °F 85% 29.87 in 10.0 mi East 10.4 mph - N/A   Overcast